Change the Weather History Date:

Friday, September 27, 2013

  Actual Average Record
Temperature  
Mean Temperature 54 °F 59 °F  
Max Temperature 60 °F 72 °F 89 °F (2014)
Min Temperature 48 °F 46 °F 46 °F (2007)
Degree Days  
Heating Degree Days 11 7  
Month to date heating degree days 40 104  
Since 1 July heating degree days 47 118  
Cooling Degree Days 0 1  
Month to date cooling degree days 208 98  
Year to date cooling degree days 999 904  
Growing Degree Days 4 (Base 50)    
Moisture  
Dew Point 46 °F    
Average Humidity 78    
Maximum Humidity 93    
Minimum Humidity 62    
Precipitation  
Precipitation 0.34 in 0.06 in 0.34 in (2013)
Month to date precipitation 0.72 1.81  
Year to date precipitation 16.71 18.81  
Sea Level Pressure  
Sea Level Pressure 29.80 in    
Wind  
Wind Speed 12 mph (NW)    
Max Wind Speed 21 mph    
Max Gust Speed 26 mph    
Visibility 9 miles    
Events Rain    
T = Trace of Precipitation, MM = Missing Value Source: NWS Daily Summary

Daily Weather History Graph

Daily Weather History Graph

Search for Another Location

Airport or City:

Trip Planner

Search our weather history database for the weather conditions in past years. The results will help you decide how hot, cold, wet, or windy it might be!

Date:

Astronomy

Sep. 27, 2013 Rise Set
Actual Time 7:32 AM CDT 7:27 PM CDT
Civil Twilight 7:04 AM CDT 7:55 PM CDT
Nautical Twilight 6:30 AM CDT 8:28 PM CDT
Astronomical Twilight 5:57 AM CDT 9:02 PM CDT
Moon 12:20 AM CDT (9/27) 3:15 PM CDT (9/27)
Length of Visible Light 12h 51m
Length of Day
11h 54m
Last Quarter, 45% of the Moon is Illuminated
Sep 27
Last Quarter
Oct 4
New
Oct 11
First Quarter
Oct 18
Full
Oct 26
Last Quarter

Hourly Weather History & Observations

Time (CDT) Temp. Dew Point Humidity Pressure Visibility Wind Dir Wind Speed Gust Speed Precip Events Conditions
12:53 AM 60.1 °F 51.1 °F 72% 29.72 in 10.0 mi NNW 10.4 mph - N/A   Partly Cloudy
1:53 AM 57.0 °F 48.9 °F 74% 29.73 in 10.0 mi NNW 15.0 mph - N/A   Clear
2:53 AM 55.9 °F 46.0 °F 69% 29.73 in 10.0 mi NNW 11.5 mph 20.7 mph N/A   Clear
3:53 AM 53.1 °F 46.0 °F 77% 29.71 in 10.0 mi NNW 10.4 mph - N/A   Clear
4:53 AM 52.0 °F 44.1 °F 74% 29.71 in 10.0 mi NNW 10.4 mph - N/A   Partly Cloudy
5:18 AM 53.6 °F 42.8 °F 67% 29.74 in 10.0 mi NNW 13.8 mph - N/A   Mostly Cloudy
5:53 AM 54.0 °F 43.0 °F 66% 29.71 in 10.0 mi NNW 11.5 mph - N/A   Overcast
6:53 AM 54.0 °F 42.1 °F 64% 29.73 in 10.0 mi NNW 13.8 mph - N/A   Overcast
7:53 AM 54.0 °F 42.1 °F 64% 29.74 in 10.0 mi NNW 12.7 mph - N/A   Overcast
8:53 AM 54.0 °F 42.1 °F 64% 29.76 in 10.0 mi NW 15.0 mph - N/A   Overcast
9:53 AM 54.0 °F 42.1 °F 64% 29.76 in 10.0 mi NW 18.4 mph - N/A   Overcast
10:53 AM 54.0 °F 44.1 °F 69% 29.77 in 10.0 mi NNW 15.0 mph - N/A   Overcast
11:53 AM 55.0 °F 44.1 °F 67% 29.78 in 10.0 mi NW 16.1 mph 20.7 mph N/A   Overcast
12:53 PM 55.9 °F 45.0 °F 67% 29.81 in 10.0 mi NNW 11.5 mph - N/A   Overcast
1:53 PM 55.9 °F 45.0 °F 67% 29.82 in 10.0 mi NW 11.5 mph - N/A   Overcast
2:53 PM 55.9 °F 46.0 °F 69% 29.83 in 10.0 mi NW 12.7 mph - N/A   Overcast
3:53 PM 57.0 °F 46.0 °F 67% 29.83 in 10.0 mi WNW 10.4 mph - N/A   Overcast
4:53 PM 57.0 °F 45.0 °F 64% 29.81 in 10.0 mi NNW 10.4 mph - N/A   Overcast
5:53 PM 57.9 °F 45.0 °F 62% 29.83 in 10.0 mi NNW 9.2 mph - N/A   Overcast
6:53 PM 55.9 °F 46.0 °F 69% 29.83 in 10.0 mi NNW 8.1 mph - 0.00 in Rain Light Rain
7:11 PM 53.6 °F 48.2 °F 82% 29.81 in 5.0 mi NNW 9.2 mph - 0.01 in Rain Rain
7:21 PM 53.6 °F 48.2 °F 82% 29.82 in 9.0 mi NW 9.2 mph - 0.01 in Rain Light Rain
7:53 PM 52.0 °F 48.9 °F 89% 29.83 in 10.0 mi NNW 6.9 mph - 0.02 in Rain Light Rain
8:39 PM 51.8 °F 48.2 °F 88% 29.81 in 10.0 mi NW 9.2 mph - 0.00 in   Overcast
8:53 PM 52.0 °F 48.0 °F 86% 29.83 in 10.0 mi South 5.8 mph - 0.00 in   Overcast
9:38 PM 51.8 °F 48.2 °F 88% 29.85 in 10.0 mi WNW 9.2 mph - 0.00 in   Overcast
9:53 PM 51.1 °F 48.0 °F 89% 29.87 in 10.0 mi NW 13.8 mph 19.6 mph 0.00 in Rain Light Rain
10:21 PM 50.0 °F 48.2 °F 94% 29.85 in 6.0 mi WNW 17.3 mph 24.2 mph 0.05 in Rain Light Rain
10:39 PM 50.0 °F 48.2 °F 94% 29.85 in 5.0 mi NW 16.1 mph - 0.08 in Rain Rain
10:53 PM 50.0 °F 48.0 °F 93% 29.84 in 5.0 mi NW 15.0 mph - 0.11 in Rain Rain
11:32 PM 48.2 °F 46.4 °F 93% 29.87 in 4.0 mi NW 15.0 mph 23.0 mph 0.13 in Rain Rain
11:53 PM 48.0 °F 46.9 °F 96% 29.87 in 5.0 mi NW 15.0 mph - 0.18 in Rain Rain